Torna al catalogo

RAWHIDE-1

AttivoScienzaVLEO
NORAD 68629·PAYLOAD·🇺🇸 United States

Lanciato Apr 7, 2026 da Vandenberg Space Force Base

Loading…

Prossimi Passaggi (prossime 24 ore)

TLE

AggiornatoSource: Space-Track

Epoca: Sep 13, 2026, 22:52 UTC

1 68629U 26074C   26256.95345940  .00002119  00000-0  94345-4 0  9992
2 68629  60.0209 197.3922 0038570  85.6420 274.9066 15.24967865 24329

Traccia RAWHIDE-1 in tempo reale con AllMySat

Download on the App Store